Location: Chisholm
(54.9102°N, 114.1701°W)
Time: 20:18:20
(UTC+00:00)

ISS - Pass Details

Date: 05 December 2021
Orbit: 413 x 422 km, 51.6° (Epoch: 18 January)

Event Time Altitude Azimuth Distance (km) Brightness Sun altitude
Rises 00:31:41 0° 273° (W) 2,388 1.3 -10.6°
Reaches altitude 10° 00:33:53 10° 264° (W) 1,519 0.4 -10.9°
Maximum altitude 00:37:02 35° 197° (SSW) 704 -2.2 -11.3°
Drops below altitude 10° 00:40:10 10° 130° (SE) 1,509 -1.2 -11.7°
Enters shadow 00:41:12 - 125° (SE) 1,907 -0.7 -11.9°
